Year,Month,Day,Hour,Minute,Value (Times are PST for temperature in C)
2018,08,10,00,00,17.90
2018,08,10,00,01,17.90
2018,08,10,00,02,17.90
2018,08,10,00,03,17.90
2018,08,10,00,04,17.90
2018,08,10,00,05,17.90
2018,08,10,00,06,17.80
2018,08,10,00,07,17.80
2018,08,10,00,08,17.80
2018,08,10,00,09,17.70
2018,08,10,00,10,17.70
2018,08,10,00,11,17.70
2018,08,10,00,12,17.70
2018,08,10,00,13,17.70
2018,08,10,00,14,17.70
2018,08,10,00,15,17.60
2018,08,10,00,16,17.60
2018,08,10,00,17,17.60
2018,08,10,00,18,17.60
2018,08,10,00,19,17.60
2018,08,10,00,20,17.60
2018,08,10,00,21,17.60
2018,08,10,00,22,17.60
2018,08,10,00,23,17.60
2018,08,10,00,24,17.60
2018,08,10,00,25,17.50
2018,08,10,00,26,17.50
2018,08,10,00,27,17.50
2018,08,10,00,28,17.50
2018,08,10,00,29,17.50
2018,08,10,00,30,17.50
2018,08,10,00,31,17.50
2018,08,10,00,32,17.50
2018,08,10,00,33,17.40
2018,08,10,00,34,17.40
2018,08,10,00,35,17.40
2018,08,10,00,36,17.40
2018,08,10,00,37,17.40
2018,08,10,00,38,17.40
2018,08,10,00,39,17.40
2018,08,10,00,40,17.40
2018,08,10,00,41,17.40
2018,08,10,00,42,17.40
2018,08,10,00,43,17.40
2018,08,10,00,44,17.40
2018,08,10,00,45,17.40
2018,08,10,00,46,17.40
2018,08,10,00,47,17.40
2018,08,10,00,48,17.40
2018,08,10,00,49,17.40
2018,08,10,00,50,17.40
2018,08,10,00,51,17.40
2018,08,10,00,52,17.40
2018,08,10,00,53,17.40
2018,08,10,00,54,17.40
2018,08,10,00,55,17.40
2018,08,10,00,56,17.40
2018,08,10,00,57,17.40
2018,08,10,00,58,17.40
2018,08,10,00,59,17.40
2018,08,10,01,00,17.40
2018,08,10,01,01,17.40
2018,08,10,01,02,17.40
2018,08,10,01,03,17.40
2018,08,10,01,04,17.40
2018,08,10,01,05,17.40
2018,08,10,01,06,17.40
2018,08,10,01,07,17.40
2018,08,10,01,08,17.40
2018,08,10,01,09,17.40
2018,08,10,01,10,17.40
2018,08,10,01,11,17.30
2018,08,10,01,12,17.30
2018,08,10,01,13,17.30
2018,08,10,01,14,17.30
2018,08,10,01,15,17.30
2018,08,10,01,16,17.30
2018,08,10,01,17,17.30
2018,08,10,01,18,17.30
2018,08,10,01,19,17.20
2018,08,10,01,20,17.20
2018,08,10,01,21,17.20
2018,08,10,01,22,17.20
2018,08,10,01,23,17.20
2018,08,10,01,24,17.20
2018,08,10,01,25,17.10
2018,08,10,01,26,17.10
2018,08,10,01,27,17.10
2018,08,10,01,28,17.10
2018,08,10,01,29,17.10
2018,08,10,01,30,17.10
2018,08,10,01,31,17.10
2018,08,10,01,32,17.00
2018,08,10,01,33,17.00
2018,08,10,01,34,17.00
2018,08,10,01,35,16.90
2018,08,10,01,36,16.90
2018,08,10,01,37,16.90
2018,08,10,01,38,16.90
2018,08,10,01,39,16.90
2018,08,10,01,40,16.80
2018,08,10,01,41,16.80
2018,08,10,01,42,16.80
2018,08,10,01,43,16.80
2018,08,10,01,44,16.80
2018,08,10,01,45,16.80
2018,08,10,01,46,16.80
2018,08,10,01,47,16.80
2018,08,10,01,48,16.70
2018,08,10,01,49,16.70
2018,08,10,01,50,16.70
2018,08,10,01,51,16.70
2018,08,10,01,52,16.70
2018,08,10,01,53,16.60
2018,08,10,01,54,16.60
2018,08,10,01,55,16.60
2018,08,10,01,56,16.60
2018,08,10,01,57,16.50
2018,08,10,01,58,16.50
2018,08,10,01,59,16.50
2018,08,10,02,00,16.50
2018,08,10,02,01,16.50
2018,08,10,02,02,16.40
2018,08,10,02,03,16.40
2018,08,10,02,04,16.40
2018,08,10,02,05,16.40
2018,08,10,02,06,16.40
2018,08,10,02,07,16.40
2018,08,10,02,08,16.30
2018,08,10,02,09,16.30
2018,08,10,02,10,16.30
2018,08,10,02,11,16.30
2018,08,10,02,12,16.30
2018,08,10,02,13,16.30
2018,08,10,02,14,16.30
2018,08,10,02,15,16.30
2018,08,10,02,16,16.30
2018,08,10,02,17,16.30
2018,08,10,02,18,16.30
2018,08,10,02,19,16.30
2018,08,10,02,20,16.30
2018,08,10,02,21,16.30
2018,08,10,02,22,16.30
2018,08,10,02,23,16.30
2018,08,10,02,24,16.30
2018,08,10,02,25,16.30
2018,08,10,02,26,16.30
2018,08,10,02,27,16.30
2018,08,10,02,28,16.30
2018,08,10,02,29,16.30
2018,08,10,02,30,16.30
2018,08,10,02,31,16.30
2018,08,10,02,32,16.30
2018,08,10,02,33,16.30
2018,08,10,02,34,16.30
2018,08,10,02,35,16.30
2018,08,10,02,36,16.30
2018,08,10,02,37,16.30
2018,08,10,02,38,16.30
2018,08,10,02,39,16.30
2018,08,10,02,40,16.30
2018,08,10,02,41,16.30
2018,08,10,02,42,16.30
2018,08,10,02,43,16.30
2018,08,10,02,44,16.30
2018,08,10,02,45,16.30
2018,08,10,02,46,16.30
2018,08,10,02,47,16.30
2018,08,10,02,48,16.30
2018,08,10,02,49,16.30
2018,08,10,02,50,16.30
2018,08,10,02,51,16.30
2018,08,10,02,52,16.20
2018,08,10,02,53,16.20
2018,08,10,02,54,16.20
2018,08,10,02,55,16.20
2018,08,10,02,56,16.20
2018,08,10,02,57,16.20
2018,08,10,02,58,16.20
2018,08,10,02,59,16.20
2018,08,10,03,00,16.20
2018,08,10,03,01,16.20
2018,08,10,03,02,16.10
2018,08,10,03,03,16.10
2018,08,10,03,04,16.10
2018,08,10,03,05,16.10
2018,08,10,03,06,16.10
2018,08,10,03,07,16.10
2018,08,10,03,08,16.10
2018,08,10,03,09,16.10
2018,08,10,03,10,16.10
2018,08,10,03,11,16.10
2018,08,10,03,12,16.10
2018,08,10,03,13,16.10
2018,08,10,03,14,16.10
2018,08,10,03,15,16.00
2018,08,10,03,16,16.00
2018,08,10,03,17,16.00
2018,08,10,03,18,16.00
2018,08,10,03,19,16.00
2018,08,10,03,20,16.00
2018,08,10,03,21,16.00
2018,08,10,03,22,16.00
2018,08,10,03,23,16.00
2018,08,10,03,24,16.00
2018,08,10,03,25,16.00
2018,08,10,03,26,16.10
2018,08,10,03,27,16.10
2018,08,10,03,28,16.10
2018,08,10,03,29,16.10
2018,08,10,03,30,16.10
2018,08,10,03,31,16.10
2018,08,10,03,32,16.20
2018,08,10,03,33,16.20
2018,08,10,03,34,16.30
2018,08,10,03,35,16.30
2018,08,10,03,36,16.40
2018,08,10,03,37,16.50
2018,08,10,03,38,16.70
2018,08,10,03,39,16.80
2018,08,10,03,40,16.90
2018,08,10,03,41,17.10
2018,08,10,03,42,17.10
2018,08,10,03,43,17.20
2018,08,10,03,44,17.20
2018,08,10,03,45,17.20
2018,08,10,03,46,17.30
2018,08,10,03,47,17.30
2018,08,10,03,48,17.30
2018,08,10,03,49,17.30
2018,08,10,03,50,17.30
2018,08,10,03,51,17.30
2018,08,10,03,52,17.30
2018,08,10,03,53,17.40
2018,08,10,03,54,17.50
2018,08,10,03,55,17.50
2018,08,10,03,56,17.50
2018,08,10,03,57,17.50
2018,08,10,03,58,17.50
2018,08,10,03,59,17.60
2018,08,10,04,00,17.60
2018,08,10,04,01,17.60
2018,08,10,04,02,17.60
2018,08,10,04,03,17.60
2018,08,10,04,04,17.60
2018,08,10,04,05,17.60
2018,08,10,04,06,17.60
2018,08,10,04,07,17.70
2018,08,10,04,08,17.70
2018,08,10,04,09,17.70
2018,08,10,04,10,17.70
2018,08,10,04,11,17.70
2018,08,10,04,12,17.70
2018,08,10,04,13,17.70
2018,08,10,04,14,17.70
2018,08,10,04,15,17.80
2018,08,10,04,16,17.80
2018,08,10,04,17,17.80
2018,08,10,04,18,17.90
2018,08,10,04,19,17.90
2018,08,10,04,20,18.00
2018,08,10,04,21,18.00
2018,08,10,04,22,18.10
2018,08,10,04,23,18.20
2018,08,10,04,24,18.20
2018,08,10,04,25,18.30
2018,08,10,04,26,18.30
2018,08,10,04,27,18.40
2018,08,10,04,28,18.40
2018,08,10,04,29,18.40
2018,08,10,04,30,18.40
2018,08,10,04,31,18.40
2018,08,10,04,32,18.30
2018,08,10,04,33,18.30
2018,08,10,04,34,18.20
2018,08,10,04,35,18.20
2018,08,10,04,36,18.20
2018,08,10,04,37,18.20
2018,08,10,04,38,18.20
2018,08,10,04,39,18.20
2018,08,10,04,40,18.20
2018,08,10,04,41,18.20
2018,08,10,04,42,18.30
2018,08,10,04,43,18.30
2018,08,10,04,44,18.30
2018,08,10,04,45,18.30
2018,08,10,04,46,18.20
2018,08,10,04,47,18.20
2018,08,10,04,48,18.10
2018,08,10,04,49,18.10
2018,08,10,04,50,18.00
2018,08,10,04,51,17.90
2018,08,10,04,52,17.90
2018,08,10,04,53,17.80
2018,08,10,04,54,17.80
2018,08,10,04,55,17.70
2018,08,10,04,56,17.70
2018,08,10,04,57,17.60
2018,08,10,04,58,17.60
2018,08,10,04,59,17.50
2018,08,10,05,00,17.40
2018,08,10,05,01,17.40
2018,08,10,05,02,17.40
2018,08,10,05,03,17.30
2018,08,10,05,04,17.30
2018,08,10,05,05,17.20
2018,08,10,05,06,17.20
2018,08,10,05,07,17.20
2018,08,10,05,08,17.10
2018,08,10,05,09,17.10
2018,08,10,05,10,17.10
2018,08,10,05,11,17.00
2018,08,10,05,12,17.00
2018,08,10,05,13,17.00
2018,08,10,05,14,16.90
2018,08,10,05,15,16.90
2018,08,10,05,16,16.90
2018,08,10,05,17,16.90
2018,08,10,05,18,16.80
2018,08,10,05,19,16.80
2018,08,10,05,20,16.80
2018,08,10,05,21,16.80
2018,08,10,05,22,16.80
2018,08,10,05,23,16.80
2018,08,10,05,24,16.70
2018,08,10,05,25,16.70
2018,08,10,05,26,16.70
2018,08,10,05,27,16.70
2018,08,10,05,28,16.70
2018,08,10,05,29,16.60
2018,08,10,05,30,16.60
2018,08,10,05,31,16.60
2018,08,10,05,32,16.60
2018,08,10,05,33,16.60
2018,08,10,05,34,16.60
2018,08,10,05,35,16.50
2018,08,10,05,36,16.50
2018,08,10,05,37,16.50
2018,08,10,05,38,16.50
2018,08,10,05,39,16.40
2018,08,10,05,40,16.40
2018,08,10,05,41,16.40
2018,08,10,05,42,16.40
2018,08,10,05,43,16.40
2018,08,10,05,44,16.40
2018,08,10,05,45,16.30
2018,08,10,05,46,16.30
2018,08,10,05,47,16.30
2018,08,10,05,48,16.30
2018,08,10,05,49,16.30
2018,08,10,05,50,16.20
2018,08,10,05,51,16.20
2018,08,10,05,52,16.20
2018,08,10,05,53,16.20
2018,08,10,05,54,16.20
2018,08,10,05,55,16.10
2018,08,10,05,56,16.10
2018,08,10,05,57,16.10
2018,08,10,05,58,16.10
2018,08,10,05,59,16.00
2018,08,10,06,00,16.00
2018,08,10,06,01,16.00
2018,08,10,06,02,16.00
2018,08,10,06,03,15.90
2018,08,10,06,04,15.90
2018,08,10,06,05,15.90
2018,08,10,06,06,15.90
2018,08,10,06,07,15.90
2018,08,10,06,08,15.90
2018,08,10,06,09,15.90
2018,08,10,06,10,15.80
2018,08,10,06,11,15.80
2018,08,10,06,12,15.80
2018,08,10,06,13,15.80
2018,08,10,06,14,15.80
2018,08,10,06,15,15.80
2018,08,10,06,16,15.70
2018,08,10,06,17,15.70
2018,08,10,06,18,15.70
2018,08,10,06,19,15.70
2018,08,10,06,20,15.70
2018,08,10,06,21,15.70
2018,08,10,06,22,15.70
2018,08,10,06,23,15.70
2018,08,10,06,24,15.60
2018,08,10,06,25,15.60
2018,08,10,06,26,15.60
2018,08,10,06,27,15.60
2018,08,10,06,28,15.60
2018,08,10,06,29,15.60
2018,08,10,06,30,15.60
2018,08,10,06,31,15.60
2018,08,10,06,32,15.60
2018,08,10,06,33,15.60
2018,08,10,06,34,15.50
2018,08,10,06,35,15.50
2018,08,10,06,36,15.50
2018,08,10,06,37,15.50
2018,08,10,06,38,15.40
2018,08,10,06,39,15.40
2018,08,10,06,40,15.40
2018,08,10,06,41,15.40
2018,08,10,06,42,15.40
2018,08,10,06,43,15.40
2018,08,10,06,44,15.40
2018,08,10,06,45,15.40
2018,08,10,06,46,15.30
2018,08,10,06,47,15.40
2018,08,10,06,48,15.30
2018,08,10,06,49,15.40
2018,08,10,06,50,15.40
2018,08,10,06,51,15.40
2018,08,10,06,52,15.40
2018,08,10,06,53,15.40
2018,08,10,06,54,15.40
2018,08,10,06,55,15.40
2018,08,10,06,56,15.40
2018,08,10,06,57,15.40
2018,08,10,06,58,15.40
2018,08,10,06,59,15.40
2018,08,10,07,00,15.40
2018,08,10,07,01,15.40
2018,08,10,07,02,15.40
2018,08,10,07,03,15.40
2018,08,10,07,04,15.40
2018,08,10,07,05,15.40
2018,08,10,07,06,15.40
2018,08,10,07,07,15.40
2018,08,10,07,08,15.40
2018,08,10,07,09,15.40
2018,08,10,07,10,15.40
2018,08,10,07,11,15.50
2018,08,10,07,12,15.50
2018,08,10,07,13,15.50
2018,08,10,07,14,15.50
2018,08,10,07,15,15.50
2018,08,10,07,16,15.50
2018,08,10,07,17,15.50
2018,08,10,07,18,15.60
2018,08,10,07,19,15.60
2018,08,10,07,20,15.60
2018,08,10,07,21,15.60
2018,08,10,07,22,15.60
2018,08,10,07,23,15.70
2018,08,10,07,24,15.70
2018,08,10,07,25,15.70
2018,08,10,07,26,15.70
2018,08,10,07,27,15.70
2018,08,10,07,28,15.80
2018,08,10,07,29,15.80
2018,08,10,07,30,15.80
2018,08,10,07,31,15.80
2018,08,10,07,32,15.90
2018,08,10,07,33,15.90
2018,08,10,07,34,15.90
2018,08,10,07,35,15.90
2018,08,10,07,36,16.00
2018,08,10,07,37,16.00
2018,08,10,07,38,16.10
2018,08,10,07,39,16.10
2018,08,10,07,40,16.10
2018,08,10,07,41,16.20
2018,08,10,07,42,16.20
2018,08,10,07,43,16.30
2018,08,10,07,44,16.30
2018,08,10,07,45,16.40
2018,08,10,07,46,16.40
2018,08,10,07,47,16.50
2018,08,10,07,48,16.50
2018,08,10,07,49,16.60
2018,08,10,07,50,16.60
2018,08,10,07,51,16.70
2018,08,10,07,52,16.70
2018,08,10,07,53,16.80
2018,08,10,07,54,16.80
2018,08,10,07,55,16.90
2018,08,10,07,56,17.00
2018,08,10,07,57,17.00
2018,08,10,07,58,17.10
2018,08,10,07,59,17.20
2018,08,10,08,00,17.20
2018,08,10,08,01,17.30
2018,08,10,08,02,17.40
2018,08,10,08,03,17.50
2018,08,10,08,04,17.60
2018,08,10,08,05,17.70
2018,08,10,08,06,17.80
2018,08,10,08,07,17.90
2018,08,10,08,08,18.00
2018,08,10,08,09,18.10
2018,08,10,08,10,18.20
2018,08,10,08,11,18.30
2018,08,10,08,12,18.40
2018,08,10,08,13,18.60
2018,08,10,08,14,18.70
2018,08,10,08,15,18.80
2018,08,10,08,16,18.90
2018,08,10,08,17,19.00
2018,08,10,08,18,19.20
2018,08,10,08,19,19.30
2018,08,10,08,20,19.40
2018,08,10,08,21,19.50
2018,08,10,08,22,19.60
2018,08,10,08,23,19.70
2018,08,10,08,24,19.80
2018,08,10,08,25,20.00
2018,08,10,08,26,20.10
2018,08,10,08,27,20.20
2018,08,10,08,28,20.30
2018,08,10,08,29,20.40
2018,08,10,08,30,20.50
2018,08,10,08,31,20.60
2018,08,10,08,32,20.70
2018,08,10,08,33,20.90
2018,08,10,08,34,21.00
2018,08,10,08,35,21.20
2018,08,10,08,36,21.30
2018,08,10,08,37,21.40
2018,08,10,08,38,21.60
2018,08,10,08,39,21.70
2018,08,10,08,40,21.80
2018,08,10,08,41,21.90
2018,08,10,08,42,22.00
2018,08,10,08,43,22.10
2018,08,10,08,44,22.20
2018,08,10,08,45,22.30
2018,08,10,08,46,22.30
2018,08,10,08,47,22.40
2018,08,10,08,48,22.40
2018,08,10,08,49,22.50
2018,08,10,08,50,22.60
2018,08,10,08,51,22.60
2018,08,10,08,52,22.70
2018,08,10,08,53,22.80
2018,08,10,08,54,22.80
2018,08,10,08,55,22.90
2018,08,10,08,56,23.00
2018,08,10,08,57,23.00
2018,08,10,08,58,23.00
2018,08,10,08,59,23.10
2018,08,10,09,00,23.10
2018,08,10,09,01,23.10
2018,08,10,09,02,23.10
2018,08,10,09,03,23.10
2018,08,10,09,04,23.10
2018,08,10,09,05,23.10
2018,08,10,09,06,23.10
2018,08,10,09,07,23.10
2018,08,10,09,08,23.10
2018,08,10,09,09,23.20
2018,08,10,09,10,23.20
2018,08,10,09,11,23.30
2018,08,10,09,12,23.30
2018,08,10,09,13,23.30
2018,08,10,09,14,23.30
2018,08,10,09,15,23.40
2018,08,10,09,16,23.40
2018,08,10,09,17,23.40
2018,08,10,09,18,23.50
2018,08,10,09,19,23.50
2018,08,10,09,20,23.60
2018,08,10,09,21,23.60
2018,08,10,09,22,23.60
2018,08,10,09,23,23.60
2018,08,10,09,24,23.60
2018,08,10,09,25,23.70
2018,08,10,09,26,23.70
2018,08,10,09,27,23.80
2018,08,10,09,28,23.80
2018,08,10,09,29,23.90
2018,08,10,09,30,23.90
2018,08,10,09,31,23.90
2018,08,10,09,32,24.00
2018,08,10,09,33,24.00
2018,08,10,09,34,24.00
2018,08,10,09,35,24.10
2018,08,10,09,36,24.10
2018,08,10,09,37,24.10
2018,08,10,09,38,24.10
2018,08,10,09,39,24.10
2018,08,10,09,40,24.20
2018,08,10,09,41,24.20
2018,08,10,09,42,24.30
2018,08,10,09,43,24.30
2018,08,10,09,44,24.40
2018,08,10,09,45,24.40
2018,08,10,09,46,24.50
2018,08,10,09,47,24.60
2018,08,10,09,48,24.60
2018,08,10,09,49,24.70
2018,08,10,09,50,24.70
2018,08,10,09,51,24.80
2018,08,10,09,52,24.80
2018,08,10,09,53,24.90
2018,08,10,09,54,24.90
2018,08,10,09,55,24.90
2018,08,10,09,56,24.90
2018,08,10,09,57,24.90
2018,08,10,09,58,24.90
2018,08,10,09,59,24.80
2018,08,10,10,00,24.80
2018,08,10,10,01,24.80
2018,08,10,10,02,24.80
2018,08,10,10,03,24.80
2018,08,10,10,04,24.80
2018,08,10,10,05,24.90
2018,08,10,10,06,25.00
2018,08,10,10,07,25.10
2018,08,10,10,08,25.20
2018,08,10,10,09,25.20
2018,08,10,10,10,25.30
2018,08,10,10,11,25.30
2018,08,10,10,12,25.30
2018,08,10,10,13,25.30
2018,08,10,10,14,25.40
2018,08,10,10,15,25.40
2018,08,10,10,16,25.30
2018,08,10,10,17,25.30
2018,08,10,10,18,25.20
2018,08,10,10,19,25.20
2018,08,10,10,20,25.20
2018,08,10,10,21,25.20
2018,08,10,10,22,25.10
2018,08,10,10,23,25.10
2018,08,10,10,24,25.10
2018,08,10,10,25,25.20
2018,08,10,10,26,25.20
2018,08,10,10,27,25.20
2018,08,10,10,28,25.10
2018,08,10,10,29,25.10
2018,08,10,10,30,25.10
2018,08,10,10,31,25.10
2018,08,10,10,32,25.20
2018,08,10,10,33,25.30
2018,08,10,10,34,25.30
2018,08,10,10,35,25.40
2018,08,10,10,36,25.50
2018,08,10,10,37,25.50
2018,08,10,10,38,25.60
2018,08,10,10,39,25.70
2018,08,10,10,40,25.70
2018,08,10,10,41,25.80
2018,08,10,10,42,25.80
2018,08,10,10,43,25.80
2018,08,10,10,44,25.80
2018,08,10,10,45,25.70
2018,08,10,10,46,25.70
2018,08,10,10,47,25.60
2018,08,10,10,48,25.60
2018,08,10,10,49,25.50
2018,08,10,10,50,25.60
2018,08,10,10,51,25.50
2018,08,10,10,52,25.50
2018,08,10,10,53,25.40
2018,08,10,10,54,25.40
2018,08,10,10,55,25.30
2018,08,10,10,56,25.30
2018,08,10,10,57,25.30
2018,08,10,10,58,25.30
2018,08,10,10,59,25.30
2018,08,10,11,00,25.30
2018,08,10,11,01,25.30
2018,08,10,11,02,25.30
2018,08,10,11,03,25.30
2018,08,10,11,04,25.30
2018,08,10,11,05,25.40
2018,08,10,11,06,25.40
2018,08,10,11,07,25.40
2018,08,10,11,08,25.40
2018,08,10,11,09,25.40
2018,08,10,11,10,25.30
2018,08,10,11,11,25.30
2018,08,10,11,12,25.30
2018,08,10,11,13,25.20
2018,08,10,11,14,25.20
2018,08,10,11,15,25.30
2018,08,10,11,16,25.30
2018,08,10,11,17,25.20
2018,08,10,11,18,25.10
2018,08,10,11,19,25.10
2018,08,10,11,20,25.10
2018,08,10,11,21,25.20
2018,08,10,11,22,25.20
2018,08,10,11,23,25.20
2018,08,10,11,24,25.30
2018,08,10,11,25,25.30
2018,08,10,11,26,25.30
2018,08,10,11,27,25.40
2018,08,10,11,28,25.50
2018,08,10,11,29,25.50
2018,08,10,11,30,25.60
2018,08,10,11,31,25.70
2018,08,10,11,32,25.80
2018,08,10,11,33,25.80
2018,08,10,11,34,25.70
2018,08,10,11,35,25.70
2018,08,10,11,36,25.70
2018,08,10,11,37,25.70
2018,08,10,11,38,25.80
2018,08,10,11,39,25.80
2018,08,10,11,40,25.80
2018,08,10,11,41,25.80
2018,08,10,11,42,25.90
2018,08,10,11,43,25.90
2018,08,10,11,44,26.00
2018,08,10,11,45,26.10
2018,08,10,11,46,26.10
2018,08,10,11,47,26.00
2018,08,10,11,48,25.90
2018,08,10,11,49,25.90
2018,08,10,11,50,25.90
2018,08,10,11,51,25.80
2018,08,10,11,52,25.80
2018,08,10,11,53,25.70
2018,08,10,11,54,25.70
2018,08,10,11,55,25.60
2018,08,10,11,56,25.50
2018,08,10,11,57,25.50
2018,08,10,11,58,25.60
2018,08,10,11,59,25.60
2018,08,10,12,00,25.70
2018,08,10,12,01,25.90
2018,08,10,12,02,25.90
2018,08,10,12,03,26.00
2018,08,10,12,04,26.10
2018,08,10,12,05,26.20
2018,08,10,12,06,26.30
2018,08,10,12,07,26.30
2018,08,10,12,08,26.30
2018,08,10,12,09,26.30
2018,08,10,12,10,26.30
2018,08,10,12,11,26.30
2018,08,10,12,12,26.40
2018,08,10,12,13,26.50
2018,08,10,12,14,26.50
2018,08,10,12,15,26.50
2018,08,10,12,16,26.50
2018,08,10,12,17,26.40
2018,08,10,12,18,26.40
2018,08,10,12,19,26.40
2018,08,10,12,20,26.30
2018,08,10,12,21,26.30
2018,08,10,12,22,26.30
2018,08,10,12,23,26.30
2018,08,10,12,24,26.30
2018,08,10,12,25,26.30
2018,08,10,12,26,26.30
2018,08,10,12,27,26.20
2018,08,10,12,28,26.20
2018,08,10,12,29,26.20
2018,08,10,12,30,26.20
2018,08,10,12,31,26.20
2018,08,10,12,32,26.30
2018,08,10,12,33,26.40
2018,08,10,12,34,26.40
2018,08,10,12,35,26.50
2018,08,10,12,36,26.60
2018,08,10,12,37,26.60
2018,08,10,12,38,26.60
2018,08,10,12,39,26.70
2018,08,10,12,40,26.70
2018,08,10,12,41,26.70
2018,08,10,12,42,26.80
2018,08,10,12,43,26.80
2018,08,10,12,44,26.80
2018,08,10,12,45,26.90
2018,08,10,12,46,26.80
2018,08,10,12,47,26.80
2018,08,10,12,48,26.80
2018,08,10,12,49,26.80
2018,08,10,12,50,26.80
2018,08,10,12,51,26.70
2018,08,10,12,52,26.70
2018,08,10,12,53,26.70
2018,08,10,12,54,26.80
2018,08,10,12,55,26.90
2018,08,10,12,56,26.90
2018,08,10,12,57,26.90
2018,08,10,12,58,27.00
2018,08,10,12,59,26.90
2018,08,10,13,00,26.80
2018,08,10,13,01,26.70
2018,08,10,13,02,26.60
2018,08,10,13,03,26.60
2018,08,10,13,04,26.70
2018,08,10,13,05,26.80
2018,08,10,13,06,26.80
2018,08,10,13,07,26.80
2018,08,10,13,08,26.80
2018,08,10,13,09,26.70
2018,08,10,13,10,26.60
2018,08,10,13,11,26.60
2018,08,10,13,12,26.50
2018,08,10,13,13,26.50
2018,08,10,13,14,26.50
2018,08,10,13,15,26.40
2018,08,10,13,16,26.40
2018,08,10,13,17,26.40
2018,08,10,13,18,26.50
2018,08,10,13,19,26.50
2018,08,10,13,20,26.40
2018,08,10,13,21,26.30
2018,08,10,13,22,26.40
2018,08,10,13,23,26.50
2018,08,10,13,24,26.60
2018,08,10,13,25,26.60
2018,08,10,13,26,26.60
2018,08,10,13,27,26.60
2018,08,10,13,28,26.70
2018,08,10,13,29,26.70
2018,08,10,13,30,26.80
2018,08,10,13,31,26.90
2018,08,10,13,32,27.00
2018,08,10,13,33,27.00
2018,08,10,13,34,26.90
2018,08,10,13,35,27.00
2018,08,10,13,36,27.00
2018,08,10,13,37,27.00
2018,08,10,13,38,27.00
2018,08,10,13,39,27.00
2018,08,10,13,40,27.10
2018,08,10,13,41,27.10
2018,08,10,13,42,27.20
2018,08,10,13,43,27.10
2018,08,10,13,44,27.10
2018,08,10,13,45,27.10
2018,08,10,13,46,27.10
2018,08,10,13,47,27.10
2018,08,10,13,48,27.10
2018,08,10,13,49,27.10
2018,08,10,13,50,27.10
2018,08,10,13,51,27.20
2018,08,10,13,52,27.30
2018,08,10,13,53,27.50
2018,08,10,13,54,27.60
2018,08,10,13,55,27.70
2018,08,10,13,56,27.70
2018,08,10,13,57,27.80
2018,08,10,13,58,27.90
2018,08,10,13,59,28.00
2018,08,10,14,00,28.10
2018,08,10,14,01,28.20
2018,08,10,14,02,28.20
2018,08,10,14,03,28.10
2018,08,10,14,04,28.10
2018,08,10,14,05,28.10
2018,08,10,14,06,28.20
2018,08,10,14,07,28.20
2018,08,10,14,08,28.30
2018,08,10,14,09,28.40
2018,08,10,14,10,28.60
2018,08,10,14,11,28.70
2018,08,10,14,12,28.80
2018,08,10,14,13,29.00
2018,08,10,14,14,29.10
2018,08,10,14,15,29.20
2018,08,10,14,16,29.30
2018,08,10,14,17,29.40
2018,08,10,14,18,29.50
2018,08,10,14,19,29.60
2018,08,10,14,20,29.70
2018,08,10,14,21,29.80
2018,08,10,14,22,29.90
2018,08,10,14,23,29.90
2018,08,10,14,24,29.90
2018,08,10,14,25,29.90
2018,08,10,14,26,29.90
2018,08,10,14,27,29.80
2018,08,10,14,28,29.80
2018,08,10,14,29,29.80
2018,08,10,14,30,29.80
2018,08,10,14,31,29.90
2018,08,10,14,32,30.00
2018,08,10,14,33,30.10
2018,08,10,14,34,30.20
2018,08,10,14,35,30.20
2018,08,10,14,36,30.30
2018,08,10,14,37,30.30
2018,08,10,14,38,30.20
2018,08,10,14,39,30.20
2018,08,10,14,40,30.20
2018,08,10,14,41,30.20
2018,08,10,14,42,30.30
2018,08,10,14,43,30.40
2018,08,10,14,44,30.30
2018,08,10,14,45,30.30
2018,08,10,14,46,30.30
2018,08,10,14,47,30.30
2018,08,10,14,48,30.30
2018,08,10,14,49,30.30
2018,08,10,14,50,30.40
2018,08,10,14,51,30.40
2018,08,10,14,52,30.40
2018,08,10,14,53,30.30
2018,08,10,14,54,30.30
2018,08,10,14,55,30.40
2018,08,10,14,56,30.40
2018,08,10,14,57,30.50
2018,08,10,14,58,30.60
2018,08,10,14,59,30.60
2018,08,10,15,00,30.60
2018,08,10,15,01,30.70
2018,08,10,15,02,30.80
2018,08,10,15,03,30.80
2018,08,10,15,04,30.80
2018,08,10,15,05,30.90
2018,08,10,15,06,31.00
2018,08,10,15,07,31.00
2018,08,10,15,08,31.00
2018,08,10,15,09,31.00
2018,08,10,15,10,30.90
2018,08,10,15,11,30.90
2018,08,10,15,12,30.90
2018,08,10,15,13,30.80
2018,08,10,15,14,30.80
2018,08,10,15,15,30.80
2018,08,10,15,16,30.80
2018,08,10,15,17,30.80
2018,08,10,15,18,30.90
2018,08,10,15,19,30.90
2018,08,10,15,20,31.00
2018,08,10,15,21,31.10
2018,08,10,15,22,31.10
2018,08,10,15,23,31.20
2018,08,10,15,24,31.20
2018,08,10,15,25,31.20
2018,08,10,15,26,31.20
2018,08,10,15,27,31.20
2018,08,10,15,28,31.20
2018,08,10,15,29,31.20
2018,08,10,15,30,31.30
2018,08,10,15,31,31.30
2018,08,10,15,32,31.30
2018,08,10,15,33,31.20
2018,08,10,15,34,31.20
2018,08,10,15,35,31.20
2018,08,10,15,36,31.30
2018,08,10,15,37,31.30
2018,08,10,15,38,31.30
2018,08,10,15,39,31.30
2018,08,10,15,40,31.30
2018,08,10,15,41,31.30
2018,08,10,15,42,31.30
2018,08,10,15,43,31.30
2018,08,10,15,44,31.40
2018,08,10,15,45,31.40
2018,08,10,15,46,31.40
2018,08,10,15,47,31.40
2018,08,10,15,48,31.40
2018,08,10,15,49,31.40
2018,08,10,15,50,31.40
2018,08,10,15,51,31.30
2018,08,10,15,52,31.30
2018,08,10,15,53,31.20
2018,08,10,15,54,31.10
2018,08,10,15,55,31.00
2018,08,10,15,56,30.90
2018,08,10,15,57,30.80
2018,08,10,15,58,30.80
2018,08,10,15,59,30.80
2018,08,10,16,00,30.80
2018,08,10,16,01,30.80
2018,08,10,16,02,30.80
2018,08,10,16,03,30.80
2018,08,10,16,04,30.80
2018,08,10,16,05,30.80
2018,08,10,16,06,30.80
2018,08,10,16,07,30.70
2018,08,10,16,08,30.60
2018,08,10,16,09,30.60
2018,08,10,16,10,30.60
2018,08,10,16,11,30.50
2018,08,10,16,12,30.50
2018,08,10,16,13,30.40
2018,08,10,16,14,30.40
2018,08,10,16,15,30.30
2018,08,10,16,16,30.30
2018,08,10,16,17,30.30
2018,08,10,16,18,30.40
2018,08,10,16,19,30.40
2018,08,10,16,20,30.40
2018,08,10,16,21,30.40
2018,08,10,16,22,30.40
2018,08,10,16,23,30.40
2018,08,10,16,24,30.40
2018,08,10,16,25,30.40
2018,08,10,16,26,30.50
2018,08,10,16,27,30.40
2018,08,10,16,28,30.40
2018,08,10,16,29,30.40
2018,08,10,16,30,30.50
2018,08,10,16,31,30.50
2018,08,10,16,32,30.50
2018,08,10,16,33,30.50
2018,08,10,16,34,30.60
2018,08,10,16,35,30.60
2018,08,10,16,36,30.50
2018,08,10,16,37,30.50
2018,08,10,16,38,30.50
2018,08,10,16,39,30.40
2018,08,10,16,40,30.50
2018,08,10,16,41,30.60
2018,08,10,16,42,30.50
2018,08,10,16,43,30.50
2018,08,10,16,44,30.40
2018,08,10,16,45,30.40
2018,08,10,16,46,30.40
2018,08,10,16,47,30.40
2018,08,10,16,48,30.40
2018,08,10,16,49,30.40
2018,08,10,16,50,30.40
2018,08,10,16,51,30.40
2018,08,10,16,52,30.40
2018,08,10,16,53,30.40
2018,08,10,16,54,30.30
2018,08,10,16,55,30.30
2018,08,10,16,56,30.30
2018,08,10,16,57,30.30
2018,08,10,16,58,30.30
2018,08,10,16,59,30.30
2018,08,10,17,00,30.40
2018,08,10,17,01,30.30
2018,08,10,17,02,30.30
2018,08,10,17,03,30.30
2018,08,10,17,04,30.30
2018,08,10,17,05,30.30
2018,08,10,17,06,30.20
2018,08,10,17,07,30.20
2018,08,10,17,08,30.10
2018,08,10,17,09,30.10
2018,08,10,17,10,30.00
2018,08,10,17,11,29.90
2018,08,10,17,12,29.90
2018,08,10,17,13,29.90
2018,08,10,17,14,29.90
2018,08,10,17,15,29.90
2018,08,10,17,16,29.90
2018,08,10,17,17,29.90
2018,08,10,17,18,29.80
2018,08,10,17,19,29.80